Weather History for KONZ - August, 2013

Change the Weather History Date:

Thursday, August 22, 2013

  Actual Average (KDTW) Record (KDTW)
Temperature  
Mean Temperature 76 °F 72 °F  
Max Temperature 82 °F 81 °F 101 °F (1936)
Min Temperature 69 °F 62 °F 45 °F (1923)
Degree Days  
Heating Degree Days 0 0  
Month to date heating degree days 0  
Since 1 June heating degree days 37  
Since 1 July heating degree days 2  
Cooling Degree Days 10 7  
Month to date cooling degree days 169  
Year to date cooling degree days 655  
Since 1 June cooling degree days 607  
Growing Degree Days 26 (Base 50)    
Moisture  
Dew Point 68 °F    
Average Humidity 77    
Maximum Humidity 88    
Minimum Humidity 58    
Precipitation  
Precipitation 0.42 in 0.08 in 1.99 in (1987)
Month to date precipitation 2.16  
Year to date precipitation 21.59  
Snow  
Snow 0.00 in 0.00 in 0.00 in ()
Month to date snowfall 0.0  
Since 1 June snowfall 0.0  
Since 1 July snowfall 0.0  
Snow Depth -    
Sea Level Pressure  
Sea Level Pressure 30.01 in    
Wind  
Wind Speed 5 mph (West)    
Max Wind Speed 9 mph    
Max Gust Speed 17 mph    
Visibility 10 miles    
Events Rain    
T = Trace of Precipitation, MM = Missing Value Source: NWS Daily Summary

Daily Weather History Graph

Daily Weather History Graph

Search for Another Location

Airport or City:

Trip Planner

Search our weather history database for the weather conditions in past years. The results will help you decide how hot, cold, wet, or windy it might be!

Date:

Astronomy

Aug. 22, 2013 Rise Set
Actual Time 6:47 AM EDT 8:22 PM EDT
Civil Twilight 6:18 AM EDT 8:51 PM EDT
Nautical Twilight 5:42 AM EDT 9:27 PM EDT
Astronomical Twilight 5:04 AM EDT 10:04 PM EDT
Moon 9:02 PM EDT (8/22) 8:38 AM EDT (8/22)
Length of Visible Light 14h 33m
Length of Day
13h 34m
Waning Gibbous, 97% of the Moon is Illuminated
Aug 22
Waning Gibbous
Aug 28
Last Quarter
Sep 5
New
Sep 12
First Quarter
Sep 19
Full

Hourly Weather History & Observations

Time (EDT) Temp. Heat Index Dew Point Humidity Pressure Visibility Wind Dir Wind Speed Gust Speed Precip Events Conditions
12:14 AM 75.2 °F - 68.0 °F 78% 30.03 in 10.0 mi SSW 5.8 mph - N/A   Clear
12:34 AM 73.4 °F - 68.0 °F 83% 30.03 in 10.0 mi SSW 3.5 mph - N/A   Clear
12:54 AM 73.4 °F - 68.0 °F 83% 30.03 in 10.0 mi SSW 3.5 mph - N/A   Clear
1:14 AM 73.4 °F - 68.0 °F 83% 30.03 in 10.0 mi SSW 4.6 mph - N/A   Clear
1:34 AM 73.4 °F - 68.0 °F 83% 30.03 in 10.0 mi SW 6.9 mph - N/A   Clear
1:53 AM 73.4 °F - 68.0 °F 83% 30.03 in 10.0 mi SSW 6.9 mph - N/A   Clear
2:14 AM 73.4 °F - 68.0 °F 83% 30.02 in 5.0 mi SW 4.6 mph - N/A   Haze
2:34 AM 73.4 °F - 66.2 °F 78% 30.02 in 10.0 mi Calm Calm - N/A   Clear
2:54 AM 73.4 °F - 68.0 °F 83% 30.02 in 10.0 mi WSW 4.6 mph - N/A   Mostly Cloudy
3:14 AM 73.4 °F - 66.2 °F 78% 30.02 in 10.0 mi SSW 5.8 mph - N/A   Overcast
3:33 AM 73.4 °F - 66.2 °F 78% 30.00 in 10.0 mi SSW 4.6 mph - N/A   Overcast
3:54 AM 73.4 °F - 66.2 °F 78% 30.01 in 10.0 mi WSW 5.8 mph - N/A   Mostly Cloudy
4:14 AM 71.6 °F - 66.2 °F 83% 30.00 in 10.0 mi SW 4.6 mph - N/A   Clear
4:34 AM 71.6 °F - 66.2 °F 83% 29.99 in 10.0 mi SSW 3.5 mph - N/A   Clear
4:54 AM 71.6 °F - 66.2 °F 83% 29.97 in 10.0 mi SSW 9.2 mph - N/A   Clear
5:14 AM 71.6 °F - 66.2 °F 83% 29.97 in 10.0 mi SSW 5.8 mph - N/A   Clear
5:34 AM 71.6 °F - 66.2 °F 83% 29.97 in 10.0 mi SSW 6.9 mph - N/A   Scattered Clouds
5:54 AM 71.6 °F - 66.2 °F 83% 29.97 in 10.0 mi SW 6.9 mph - N/A   Mostly Cloudy
6:14 AM 71.6 °F - 66.2 °F 83% 29.99 in 10.0 mi West 6.9 mph - N/A   Overcast
6:34 AM 71.6 °F - 66.2 °F 83% 30.00 in 10.0 mi West 3.5 mph - N/A   Overcast
6:54 AM 71.6 °F - 66.2 °F 83% 30.00 in 10.0 mi WSW 5.8 mph - N/A Rain Rain
7:14 AM 71.6 °F - 66.2 °F 83% 30.01 in 7.0 mi NW 3.5 mph - N/A Rain Rain
7:34 AM 69.8 °F - 66.2 °F 88% 30.03 in 7.0 mi West 8.1 mph - 0.03 in Rain Light Rain
7:54 AM 69.8 °F - 66.2 °F 88% 30.03 in 2.0 mi SSW 8.1 mph 17.3 mph 0.42 in Rain Heavy Rain
8:14 AM 69.8 °F - 66.2 °F 88% 30.03 in 5.0 mi SW 8.1 mph - N/A   Scattered Clouds
8:34 AM 69.8 °F - 66.2 °F 88% 30.05 in 7.0 mi WSW 4.6 mph - N/A   Scattered Clouds
8:54 AM 71.6 °F - 66.2 °F 83% 30.05 in 7.0 mi Calm Calm - N/A   Scattered Clouds
9:14 AM 71.6 °F - 68.0 °F 88% 30.05 in 7.0 mi Calm Calm - N/A   Clear
9:34 AM 73.4 °F - 69.8 °F 88% 30.04 in 7.0 mi West 4.6 mph - N/A   Clear
9:54 AM 73.4 °F - 69.8 °F 88% 30.04 in 10.0 mi West 4.6 mph - N/A   Clear
10:14 AM 75.2 °F - 69.8 °F 83% 30.04 in 10.0 mi WNW 5.8 mph - N/A   Clear
10:34 AM 77.0 °F - 69.8 °F 78% 30.04 in 10.0 mi West 5.8 mph - N/A   Clear
10:54 AM 77.0 °F - 69.8 °F 78% 30.04 in 10.0 mi WNW 3.5 mph - N/A   Clear
11:14 AM 78.8 °F - 69.8 °F 74% 30.04 in 10.0 mi WNW 4.6 mph - N/A   Clear
11:34 AM 78.8 °F - 69.8 °F 74% 30.04 in 10.0 mi WNW 4.6 mph - N/A   Clear
11:54 AM 80.6 °F 83.2 °F 68.0 °F 65% 30.04 in 10.0 mi West 5.8 mph - N/A   Clear
12:14 PM 80.6 °F 83.2 °F 68.0 °F 65% 30.04 in 10.0 mi West 6.9 mph - N/A   Clear
12:34 PM 82.4 °F 84.6 °F 66.2 °F 58% 30.03 in 10.0 mi WNW 5.8 mph - N/A   Clear
12:54 PM 82.4 °F 85.4 °F 68.0 °F 62% 30.03 in 10.0 mi WNW 6.9 mph - N/A   Clear
1:14 PM 82.4 °F 84.6 °F 66.2 °F 58% 30.02 in 10.0 mi NW 4.6 mph - N/A   Clear
1:34 PM 82.4 °F 85.4 °F 68.0 °F 62% 30.02 in 10.0 mi NW 3.5 mph - N/A   Clear
1:53 PM 82.4 °F 84.6 °F 66.2 °F 58% 30.01 in 10.0 mi SW 4.6 mph - N/A   Clear
2:14 PM 82.4 °F 85.4 °F 68.0 °F 62% 30.02 in 10.0 mi Calm Calm - N/A   Clear
2:34 PM 82.4 °F 86.3 °F 69.8 °F 66% 30.02 in 10.0 mi West 5.8 mph - N/A   Clear
2:54 PM 82.4 °F 86.3 °F 69.8 °F 66% 30.01 in 10.0 mi WSW 4.6 mph - N/A   Scattered Clouds
3:14 PM 82.4 °F 86.3 °F 69.8 °F 66% 30.01 in 10.0 mi WSW 6.9 mph - N/A   Scattered Clouds
3:33 PM 80.6 °F 83.9 °F 69.8 °F 70% 30.01 in 10.0 mi West 6.9 mph - N/A   Mostly Cloudy
3:54 PM 80.6 °F 83.2 °F 68.0 °F 65% 30.00 in 10.0 mi West 8.1 mph - N/A   Scattered Clouds
4:14 PM 80.6 °F 83.9 °F 69.8 °F 70% 30.00 in 10.0 mi West 8.1 mph - N/A   Clear
4:33 PM 80.6 °F 83.9 °F 69.8 °F 70% 29.99 in 10.0 mi West 8.1 mph - N/A   Clear
4:54 PM 80.6 °F 83.9 °F 69.8 °F 70% 29.99 in 10.0 mi WNW 8.1 mph - N/A   Clear
5:14 PM 78.8 °F - 69.8 °F 74% 30.00 in 10.0 mi West 8.1 mph - N/A   Clear
5:34 PM 78.8 °F - 68.0 °F 69% 30.00 in 10.0 mi West 6.9 mph - N/A   Clear
5:54 PM 78.8 °F - 68.0 °F 69% 30.00 in 10.0 mi West 4.6 mph - N/A   Clear
6:14 PM 78.8 °F - 68.0 °F 69% 30.00 in 10.0 mi West 6.9 mph - N/A   Clear
6:34 PM 77.0 °F - 69.8 °F 78% 30.00 in 10.0 mi West 5.8 mph - N/A   Clear
6:54 PM 77.0 °F - 69.8 °F 78% 30.00 in 10.0 mi West 9.2 mph - N/A   Clear
7:14 PM 77.0 °F - 68.0 °F 74% 30.00 in 10.0 mi West 6.9 mph - N/A   Mostly Cloudy
7:34 PM 75.2 °F - 66.2 °F 73% 30.00 in 10.0 mi West 8.1 mph - N/A   Scattered Clouds
7:54 PM 75.2 °F - 68.0 °F 78% 30.00 in 10.0 mi West 4.6 mph - N/A   Clear
8:14 PM 75.2 °F - 68.0 °F 78% 30.00 in 10.0 mi West 6.9 mph - N/A   Clear
8:34 PM 73.4 °F - 69.8 °F 88% 30.00 in 10.0 mi WNW 4.6 mph - N/A   Clear
8:54 PM 75.2 °F - 69.8 °F 83% 30.00 in 10.0 mi Calm Calm - N/A   Scattered Clouds
9:13 PM 75.2 °F - 69.8 °F 83% 30.00 in 10.0 mi NW 3.5 mph - N/A   Scattered Clouds
9:34 PM 75.2 °F - 69.8 °F 83% 30.00 in 10.0 mi NNW 5.8 mph - N/A   Scattered Clouds
9:54 PM 75.2 °F - 69.8 °F 83% 30.01 in 10.0 mi NNW 6.9 mph - N/A   Clear
10:14 PM 75.2 °F - 69.8 °F 83% 30.01 in 10.0 mi NNW 6.9 mph - N/A   Scattered Clouds
10:34 PM 75.2 °F - 69.8 °F 83% 30.01 in 10.0 mi NNW 5.8 mph - N/A   Scattered Clouds
10:54 PM 75.2 °F - 68.0 °F 78% 30.01 in 10.0 mi NNW 6.9 mph - N/A   Scattered Clouds
11:14 PM 75.2 °F - 68.0 °F 78% 30.02 in 10.0 mi NNW 4.6 mph - N/A   Scattered Clouds
11:34 PM 75.2 °F - 68.0 °F 78% 30.02 in 10.0 mi North 5.8 mph - N/A   Clear
11:54 PM 73.4 °F - 68.0 °F 83% 30.02 in 10.0 mi North 4.6 mph - N/A   Scattered Clouds